This demonstration page uses our WeatherBlox Daily Observations layout. Learn more.

Left ArrowRight Arrow

Hourly Observations for April 10, 2019

Temp ( °F °C ) Dew Point ( °F °C ) Humidity (%) Winds ( mph kmh ) Pressure ( in mb ) Visibility ( mi km ) Precip ( " mm )
12:10 am 00:10 Clear 60 15.5 48 8.7 64 64 E 21 33 29.53 1000 N/A 0.00 0.00
12:35 am 00:35 Clear 59 14.8 47 8.2 65 65 E 21 33 29.53 1000 N/A 0.00 0.00
12:55 am 00:55 Clear 58 14.5 46 8 65 65 E 21 33 29.53 1000 N/A 0.00 0.00
1:15 am 01:15 Clear 57 14 45 7.3 64 64 E 21 33 29.54 1000 N/A 0.00 0.00
1:35 am 01:35 Clear 57 13.7 44 6.7 63 63 E 25 41 29.52 1000 N/A 0.00 0.00
1:55 am 01:55 Clear 56 13.5 44 6.5 63 63 E 22 35 29.51 999 N/A 0.00 0.00
2:15 am 02:15 Clear 56 13.1 43 6 62 62 E 24 39 29.50 999 N/A 0.00 0.00
2:35 am 02:35 Clear 55 12.7 42 5.7 63 63 E 22 35 29.50 999 N/A 0.00 0.00
2:55 am 02:55 Clear 54 12.1 42 5.3 63 63 E 23 37 29.48 998 N/A 0.00 0.00
3:15 am 03:15 Clear 53 11.4 41 5 65 65 E 24 39 29.48 998 N/A 0.00 0.00
3:35 am 03:35 Clear 51 10.8 40 4.6 66 66 E 23 37 29.48 998 N/A 0.00 0.00
3:55 am 03:55 Clear 51 10.6 40 4.5 66 66 E 24 39 29.48 998 N/A 0.00 0.00
4:15 am 04:15 Clear 51 10.3 39 4.1 66 66 E 20 31 29.48 998 N/A 0.00 0.00
4:35 am 04:35 Clear 50 10.2 39 4 66 66 E 18 30 29.47 998 N/A 0.00 0.00
4:55 am 04:55 Clear 50 10 39 3.8 66 66 E 20 31 29.47 998 N/A 0.00 0.00
5:15 am 05:15 Clear 49 9.6 38 3.6 66 66 E 17 28 29.47 998 N/A 0.00 0.00
5:35 am 05:35 Clear 49 9.2 38 3.5 68 68 E 17 28 29.48 998 N/A 0.00 0.00
5:55 am 05:55 Clear 48 8.7 38 3.3 69 69 E 17 28 29.47 998 N/A 0.00 0.00
6:15 am 06:15 Clear 47 8.5 38 3.1 69 69 ENE 15 24 29.47 998 N/A 0.00 0.00
6:35 am 06:35 Clear 46 7.9 37 3 71 71 ENE 14 22 29.48 998 N/A 0.00 0.00
6:55 am 06:55 Clear 46 8 37 2.7 69 69 NE 20 31 29.49 999 N/A 0.00 0.00
7:15 am 07:15 Sunny 45 7.2 36 2.3 71 71 NE 20 31 29.50 999 N/A 0.00 0.00
7:35 am 07:35 Sunny 45 7.4 36 2.4 71 71 NE 18 30 29.50 999 N/A 0.00 0.00
7:55 am 07:55 Sunny 45 7.2 36 2.2 71 71 NE 21 33 29.50 999 N/A 0.00 0.00
8:15 am 08:15 Sunny 45 7.2 36 2.3 71 71 NE 21 33 29.51 999 N/A 0.00 0.00
8:35 am 08:35 Sunny 46 7.7 37 2.5 70 70 NE 22 35 29.49 999 N/A 0.00 0.00
8:55 am 08:55 Sunny N/A N/A N/A undefined N/A N/A N/A 0.00 0.00
9:15 am 09:15 Sunny 48 8.9 37 2.8 66 66 NE 24 39 29.47 998 N/A 0.00 0.00
9:35 am 09:35 Sunny 49 9.3 37 3 65 65 ENE 25 41 29.47 998 N/A 0.00 0.00
9:55 am 09:55 Sunny 49 9.4 38 3.3 66 66 NE 23 37 29.46 998 N/A 0.00 0.00
10:15 am 10:15 Sunny 49 9.3 38 3.4 67 67 NE 26 43 29.45 997 N/A 0.00 0.00
10:35 am 10:35 Sunny 49 9.6 39 3.8 67 67 ENE 26 43 29.46 998 N/A 0.00 0.00
10:55 am 10:55 Mostly Cloudy 50 10.1 39 4 66 66 NE 25 41 29.46 998 N/A 0.00 0.00
11:15 am 11:15 Cloudy 51 10.7 40 4.2 64 64 NE 25 41 29.45 997 N/A 0.00 0.00
11:35 am 11:35 Cloudy 51 10.8 40 4.4 65 65 NE 23 37 29.44 997 N/A 0.00 0.00
11:55 am 11:55 Cloudy with Haze 51 10.6 40 4.5 66 66 NE 21 33 29.47 998 1 2 0.01 0.25
12:15 pm 12:15 Cloudy 51 10.3 40 4.3 67 67 NNE 21 33 29.46 998 10 16 0.00 0.00
12:35 pm 12:35 Cloudy 49 9.7 40 4.3 69 69 NNE 22 35 29.48 998 10 16 0.00 0.00
12:55 pm 12:55 Cloudy 48 8.9 40 4.2 73 73 NNE 21 33 29.49 999 10 16 0.00 0.00
1:15 pm 13:15 Cloudy 47 8.2 39 4.1 76 76 NNE 23 37 29.50 999 10 16 0.00 0.00
1:35 pm 13:35 Cloudy 46 7.8 39 4.1 78 78 NNE 22 35 29.50 999 10 16 0.00 0.00
1:55 pm 13:55 Cloudy 42 5.5 37 3 84 84 N 24 39 29.52 1000 10 16 0.00 0.00
2:15 pm 14:15 Cloudy with Mist and Fog 39 4.1 37 2.5 89 89 NNE 22 35 29.57 1001 2 2 0.00 0.00
2:35 pm 14:35 Cloudy with Mist and Fog 38 3.5 35 1.9 89 89 NNE 26 43 29.57 1001 4 6 0.00 0.00
2:55 pm 14:55 Cloudy with Mist and Fog 38 3.5 35 1.7 88 88 NNE 29 46 29.55 1001 5 8 0.00 0.00
3:15 pm 15:15 Cloudy with Mist and Fog 38 3.5 35 1.7 88 88 NNE 23 37 29.54 1000 5 8 0.00 0.00
3:35 pm 15:35 Cloudy with Mist and Fog 38 3.5 36 2 90 90 NNE 24 39 29.55 1001 5 8 0.00 0.00
3:55 pm 15:55 Cloudy with Mist and Fog 38 3.3 36 2 91 91 NNE 21 33 29.55 1001 3 5 0.00 0.00
4:15 pm 16:15 Cloudy with Mist and Fog 38 3.1 36 2 93 93 NNE 21 33 29.57 1001 5 8 0.00 0.00
4:35 pm 16:35 Cloudy 37 2.9 35 1.6 91 91 NNE 20 31 29.57 1001 7 11 0.00 0.00
4:55 pm 16:55 Cloudy 37 2.6 34 1.1 90 90 N 22 35 29.58 1002 7 11 0.00 0.00
5:15 pm 17:15 Cloudy with Mist and Fog 37 2.6 34 1 89 89 N 21 33 29.59 1002 5 8 0.00 0.00
5:35 pm 17:35 Cloudy 37 2.5 33 0.7 88 88 NNE 15 24 29.63 1003 10 16 0.00 0.00
5:55 pm 17:55 Cloudy with Light Rain 36 2.1 33 0.3 88 88 NNE 18 30 29.57 1002 10 16 0.00 0.00
6:15 pm 18:15 Cloudy 35 1.8 32 0 88 88 NNE 17 28 29.61 1003 10 16 0.00 0.00
6:35 pm 18:35 Cloudy 35 1.6 32 -0.1 89 89 NNE 25 41 29.58 1002 10 16 0.00 0.00
6:55 pm 18:55 Cloudy 35 1.5 32 -0.1 89 89 NNE 16 26 29.64 1004 10 16 0.00 0.00
7:15 pm 19:15 Cloudy with Nearby Thunderstorms 34 1.3 31 -0.5 88 88 NNE 25 41 29.61 1003 10 16 0.00 0.00
7:35 pm 19:35 Cloudy 34 1.2 31 -0.6 88 88 N 23 37 29.62 1003 7 11 0.00 0.00
7:55 pm 19:55 Cloudy 34 1 30 -0.9 87 87 NNE 23 37 29.64 1004 10 16 0.00 0.00
8:15 pm 20:15 Cloudy with Light Rain 34 0.9 30 -1 87 87 NNE 26 43 29.62 1003 10 16 0.00 0.00
8:35 pm 20:35 Cloudy with Nearby Thunderstorms 33 0.7 30 -1 89 89 N 25 41 29.60 1002 10 16 0.00 0.00
8:55 pm 20:55 Cloudy 33 0.6 30 -1.3 87 87 N 20 31 29.63 1003 10 16 0.00 0.00
9:15 pm 21:15 Cloudy 33 0.5 29 -1.5 87 87 N 29 46 29.64 1004 10 16 0.00 0.00
9:35 pm 21:35 Windy with Snow Likely 33 0.3 29 -1.5 88 88 N 23 37 29.63 1003 5 8 0.01 0.25
9:55 pm 21:55 Cloudy 33 0.3 29 -1.5 88 88 NNE 23 37 29.64 1004 10 16 0.01 0.25
10:15 pm 22:15 Windy with Snow Likely 32 0 29 -1.5 90 90 N 22 35 29.62 1003 2 3 0.00 0.00
10:35 pm 22:35 Cloudy with Light Snow 32 0 29 -1.5 90 90 N 16 26 29.65 1004 2 3 0.01 0.25
10:55 pm 22:55 Cloudy with Nearby Thunderstorms 32 0 29 -1.5 90 90 N 23 37 29.67 1005 4 6 0.01 0.25
11:15 pm 23:15 Windy with Snow Likely 32 -0.1 28 -2 87 87 N 21 33 29.66 1004 5 8 0.00 0.00
11:35 pm 23:35 Cloudy with Light Snow 32 -0.1 28 -2 87 87 NNW 18 30 29.67 1005 4 6 0.00 0.00
11:55 pm 23:55 Cloudy with Mist and Fog 31 -0.5 28 -2 90 90 N 25 41 29.62 1003 3 4 0.00 0.00

Powered by AerisWeather